• In Russia
  • List of Countries
  • For 7 days
  • Water Temperature
  • Satellite Maps
  • Weather Map
  • Weather Widgets
  • user-avatar
    Login

    Hourly Weather Kormend

    Today, 14 December, Thursday

    Time Temperature Precipitation Wind Pressure Humidity
    00:00 -1°C° 0 mm 4 mps 740 mmHg 89%
    01:00 -1°C° 0 mm 4 mps 739 mmHg 90%
    02:00 -1°C° 0 mm 5 mps 738 mmHg 88%
    03:00 0°C° 0 mm 5 mps 737 mmHg 87%
    04:00 +1°C° 0 mm 6 mps 736 mmHg 85%
    05:00 +1°C° 0 mm 6 mps 736 mmHg 83%
    06:00 +1°C° 0 mm 5 mps 736 mmHg 81%
    07:00 +2°C° 0 mm 5 mps 735 mmHg 79%
    08:00 +3°C° 0 mm 4 mps 735 mmHg 78%
    09:00 +4°C° 0 mm 4 mps 736 mmHg 77%
    10:00 +5°C° 0 mm 3 mps 736 mmHg 76%
    11:00 +5°C° 0 mm 3 mps 736 mmHg 76%
    12:00 +7°C° 0 mm 2 mps 736 mmHg 76%
    13:00 +8°C° 0 mm 2 mps 736 mmHg 76%
    14:00 +7°C° 0.1 mm 2 mps 736 mmHg 79%
    15:00 +7°C° 0.1 mm 2 mps 736 mmHg 82%
    16:00 +7°C° 0.1 mm 1 mps 736 mmHg 85%
    17:00 +6°C° 0.1 mm 2 mps 736 mmHg 86%
    18:00 +6°C° 0.1 mm 2 mps 736 mmHg 87%
    19:00 +6°C° 0.1 mm 2 mps 737 mmHg 88%
    20:00 +5°C° 0.3 mm 2 mps 736 mmHg 89%
    21:00 +5°C° 0.3 mm 2 mps 736 mmHg 90%
    22:00 +4°C° 0.3 mm 3 mps 736 mmHg 92%
    23:00 +4°C° 0.4 mm 3 mps 735 mmHg 92%

    Tomorrow, 15 December, Friday

    Time Temperature Precipitation Wind Pressure Humidity
    00:00 +4°C° 0.4 mm 3 mps 735 mmHg 92%
    01:00 +4°C° 0.4 mm 4 mps 734 mmHg 92%
    02:00 +4°C° 0 mm 4 mps 733 mmHg 92%
    03:00 +4°C° 0 mm 4 mps 733 mmHg 92%
    04:00 +4°C° 0 mm 4 mps 732 mmHg 92%
    05:00 +5°C° 0 mm 4 mps 732 mmHg 90%
    06:00 +5°C° 0 mm 4 mps 732 mmHg 87%
    07:00 +6°C° 0 mm 5 mps 732 mmHg 85%
    08:00 +6°C° 0.3 mm 4 mps 732 mmHg 84%
    09:00 +7°C° 0.3 mm 3 mps 733 mmHg 83%
    10:00 +7°C° 0.3 mm 2 mps 733 mmHg 82%
    11:00 +7°C° 0.2 mm 2 mps 734 mmHg 77%
    12:00 +8°C° 0.2 mm 1 mps 734 mmHg 71%
    13:00 +8°C° 0.2 mm 1 mps 735 mmHg 66%
    14:00 +6°C° 0 mm 2 mps 735 mmHg 67%
    15:00 +6°C° 0 mm 2 mps 735 mmHg 67%
    16:00 +5°C° 0 mm 2 mps 735 mmHg 68%
    17:00 +5°C° 0.4 mm 2 mps 735 mmHg 70%
    18:00 +4°C° 0.4 mm 2 mps 736 mmHg 72%
    19:00 +4°C° 0.4 mm 2 mps 736 mmHg 74%
    20:00 +4°C° 0.4 mm 2 mps 736 mmHg 76%
    21:00 +4°C° 0.4 mm 2 mps 736 mmHg 78%
    22:00 +4°C° 0.4 mm 1 mps 736 mmHg 80%
    23:00 +3°C° 0.2 mm 2 mps 736 mmHg 81%

    Day after tomorrow, 16 December, Saturday

    Time Temperature Precipitation Wind Pressure Humidity
    00:00 +3°C° 0.2 mm 2 mps 736 mmHg 83%
    01:00 +3°C° 0.2 mm 2 mps 736 mmHg 85%
    02:00 +3°C° 0.1 mm 2 mps 736 mmHg 85%
    03:00 +4°C° 0.1 mm 1 mps 736 mmHg 86%
    04:00 +3°C° 0.1 mm 1 mps 736 mmHg 86%
    05:00 +3°C° 0.1 mm 1 mps 736 mmHg 86%
    06:00 +3°C° 0.1 mm 1 mps 737 mmHg 86%
    07:00 +3°C° 0.1 mm 1 mps 737 mmHg 86%
    08:00 +4°C° 0 mm 1 mps 738 mmHg 84%
    09:00 +4°C° 0 mm 1 mps 738 mmHg 83%
    10:00 +5°C° 0 mm 1 mps 739 mmHg 81%
    11:00 +5°C° 0 mm 1 mps 739 mmHg 78%
    12:00 +6°C° 0 mm 1 mps 739 mmHg 75%
    13:00 +6°C° 0 mm 1 mps 739 mmHg 72%
    14:00 +6°C° 0 mm 1 mps 739 mmHg 75%
    15:00 +5°C° 0 mm 1 mps 740 mmHg 78%
    16:00 +4°C° 0 mm 1 mps 740 mmHg 81%
    17:00 +3°C° 0 mm 2 mps 741 mmHg 81%
    18:00 +2°C° 0 mm 2 mps 741 mmHg 81%
    19:00 +2°C° 0 mm 2 mps 742 mmHg 81%
    20:00 +2°C° 0 mm 2 mps 742 mmHg 81%
    21:00 +1°C° 0 mm 2 mps 743 mmHg 81%
    22:00 +1°C° 0 mm 2 mps 743 mmHg 82%
    23:00 +1°C° 0 mm 2 mps 744 mmHg 82%

    17 December, Sunday

    Time Temperature Precipitation Wind Pressure Humidity
    00:00 +1°C° 0 mm 2 mps 744 mmHg 83%
    01:00 -1°C° 0 mm 3 mps 744 mmHg 83%
    02:00 -1°C° 0 mm 3 mps 745 mmHg 82%
    03:00 -1°C° 0 mm 3 mps 745 mmHg 82%
    04:00 -1°C° 0 mm 3 mps 745 mmHg 81%
    05:00 -1°C° 0 mm 2 mps 746 mmHg 81%
    06:00 -1°C° 0 mm 2 mps 746 mmHg 80%
    07:00 -2°C° 0 mm 2 mps 747 mmHg 80%
    08:00 -1°C° 0 mm 2 mps 747 mmHg 76%
    09:00 0°C° 0 mm 3 mps 748 mmHg 72%
    10:00 +1°C° 0 mm 3 mps 748 mmHg 68%
    11:00 +2°C° 0 mm 3 mps 748 mmHg 65%
    12:00 +3°C° 0 mm 3 mps 748 mmHg 62%
    13:00 +3°C° 0 mm 4 mps 748 mmHg 59%
    14:00 +2°C° 0 mm 3 mps 748 mmHg 64%
    15:00 +3°C° 0 mm 2 mps 749 mmHg 68%
    16:00 +3°C° 0 mm 1 mps 749 mmHg 73%
    17:00 +1°C° 0 mm 2 mps 749 mmHg 75%
    18:00 +1°C° 0 mm 2 mps 750 mmHg 77%
    19:00 +1°C° 0 mm 2 mps 751 mmHg 79%
    20:00 -1°C° 0 mm 2 mps 751 mmHg 80%
    21:00 -1°C° 0 mm 2 mps 751 mmHg 81%
    22:00 -1°C° 0 mm 2 mps 752 mmHg 82%
    23:00 -1°C° 0 mm 2 mps 752 mmHg 81%

    18 December, Monday

    Time Temperature Precipitation Wind Pressure Humidity
    00:00 -1°C° 0 mm 2 mps 752 mmHg 81%
    01:00 -1°C° 0 mm 2 mps 753 mmHg 81%
    02:00 -1°C° 0 mm 2 mps 753 mmHg 80%
    03:00 -2°C° 0 mm 2 mps 753 mmHg 80%
    04:00 -2°C° 0 mm 2 mps 753 mmHg 80%
    05:00 0°C° 0 mm 1 mps 752 mmHg 79%
    06:00 0°C° 0 mm 1 mps 752 mmHg 79%
    07:00 0°C° 0 mm 1 mps 752 mmHg 78%
    08:00 -1°C° 0 mm 2 mps 752 mmHg 75%
    09:00 -1°C° 0 mm 2 mps 752 mmHg 72%
    10:00 0°C° 0 mm 3 mps 751 mmHg 69%
    11:00 +1°C° 0 mm 3 mps 750 mmHg 66%
    12:00 0°C° 0 mm 4 mps 750 mmHg 64%
    13:00 +1°C° 0 mm 5 mps 749 mmHg 61%
    14:00 0°C° 0.1 mm 4 mps 748 mmHg 65%
    15:00 0°C° 0.1 mm 4 mps 747 mmHg 68%
    16:00 +1°C° 0.1 mm 3 mps 747 mmHg 72%
    17:00 +1°C° 0.3 mm 3 mps 747 mmHg 75%
    18:00 0°C° 0.3 mm 3 mps 747 mmHg 79%
    19:00 +1°C° 0.3 mm 2 mps 747 mmHg 82%
    20:00 +1°C° 0.1 mm 2 mps 747 mmHg 84%
    21:00 +1°C° 0.1 mm 2 mps 748 mmHg 85%
    22:00 +1°C° 0.1 mm 2 mps 748 mmHg 86%
    23:00 +1°C° 0.1 mm 2 mps 748 mmHg 86%

    19 December, Tuesday

    Time Temperature Precipitation Wind Pressure Humidity
    00:00 +2°C° 0.1 mm 1 mps 749 mmHg 86%
    01:00 +2°C° 0.1 mm 1 mps 749 mmHg 85%
    02:00 +2°C° 0.1 mm 1 mps 749 mmHg 85%
    03:00 +2°C° 0.1 mm 1 mps 750 mmHg 85%
    04:00 +3°C° 0.1 mm 1 mps 750 mmHg 86%
    05:00 +3°C° 0.1 mm 1 mps 751 mmHg 86%
    06:00 +3°C° 0.1 mm 1 mps 751 mmHg 86%
    07:00 +3°C° 0.1 mm 1 mps 752 mmHg 87%
    08:00 +3°C° 0.1 mm 1 mps 752 mmHg 86%
    09:00 +3°C° 0.1 mm 2 mps 753 mmHg 86%
    10:00 +3°C° 0.1 mm 2 mps 753 mmHg 85%
    11:00 +3°C° 0.1 mm 2 mps 753 mmHg 85%
    12:00 +4°C° 0.1 mm 2 mps 754 mmHg 84%
    13:00 +3°C° 0.1 mm 3 mps 754 mmHg 84%
    14:00 +2°C° 0 mm 3 mps 754 mmHg 86%
    15:00 +2°C° 0 mm 3 mps 754 mmHg 88%
    16:00 +1°C° 0 mm 3 mps 755 mmHg 90%
    17:00 +1°C° 0 mm 3 mps 755 mmHg 90%
    18:00 0°C° 0 mm 3 mps 756 mmHg 90%
    19:00 0°C° 0 mm 3 mps 756 mmHg 91%
    20:00 -1°C° 0 mm 3 mps 757 mmHg 90%
    21:00 -1°C° 0 mm 3 mps 757 mmHg 90%
    22:00 -1°C° 0 mm 3 mps 758 mmHg 90%
    23:00 -1°C° 0 mm 3 mps 758 mmHg 90%
    Show more